User: anonymous   Login
Location: Mentone
(34.5413°N, 85.5351°W)
Time: 10:32:51
(UTC-06:00)
Language:

SL-8 R/B - Orbit

View from above orbital plane
View from above orbital plane
View from above satellite
View from above satellite

Ground track
Ground track

The orbit data is extracted from the following two-line orbital elements,

1 33066U 08031G   15061.46346497  .00000515  00000-0  11961-3 0  9998
2 33066 048.4440 067.8780 0007617 181.2245 335.8259 14.69127868359569
Epoch (UTC): 02 March 2015 11:07:23
Eccentricity: 0.0007617
inclination: 48.4440°
perigee height: 658 km
apogee height: 669 km
right ascension of ascending node: 67.8780°
argument of perigee: 181.2245°
revolutions per day: 14.69127868
mean anomaly at epoch: 335.8259°
orbit number at epoch: 35956

The dashed part of the orbit path shows where the satellite is in the earth's shadow,  

DLR